contact:dominique.lefevre@mio.osupytheas.fr, maurice.libes@osupytheas.fr, didier.mallarino@osupytheas.fr
Project:EMSO http://www.emso-fr.org/EMSO-France
Depth: 2436.0 m
Title:EMSO Ligure Ouest : Data MII capteur AQUADOPP
Date,Latitude,Longitude,X_East,Y_North,Z_Up,Amplitude_X,Amplitude_Y,Amplitude_Z,Batterie,SoundSpeed,Heading,Pitch,Roll,Pressure,TIS,Speed,Direction
, degrees North, degrees East, m.s-1, m.s-1,m.s-1, 1, 1, 1, Volt, m.s-1, degree, degree, degree, dbar, degree_C, m.s-1, degree
2023-07-31T00:04:03,42.805,6.029,-0.022,-0.013,-0.07,102.0,102.0,102.0,13.4,1505.2,337.1,-0.8,1.8,2471.437,13.28,0.025,239.4
2023-07-31T00:07:03,42.805,6.029,-0.037,0.013,-0.052,103.0,103.0,102.0,13.4,1505.2,330.5,-0.8,1.8,2471.42,13.29,0.039,289.4
2023-07-31T00:10:03,42.805,6.029,-0.015,-0.032,-0.084,104.0,103.0,102.0,13.4,1505.2,332.4,-0.8,1.8,2471.401,13.29,0.035,205.1
2023-07-31T00:13:03,42.805,6.029,-0.028,0.0,-0.026,103.0,103.0,102.0,13.4,1505.2,323.4,-0.8,1.8,2471.39,13.29,0.028,270.0
2023-07-31T00:16:03,42.805,6.029,-0.017,-0.005,-0.053,103.0,103.0,101.0,13.3,1505.2,337.7,-0.8,1.8,2471.393,13.29,0.017,253.6
2023-07-31T00:19:03,42.805,6.029,-0.025,-0.003,-0.056,103.0,103.0,102.0,13.4,1505.2,349.1,-0.8,1.8,2471.385,13.29,0.025,263.2
2023-07-31T00:22:03,42.805,6.029,-0.002,0.003,-0.048,103.0,102.0,101.0,13.4,1505.2,325.3,-0.8,1.8,2471.37,13.29,0.003,326.3
2023-07-31T00:25:03,42.805,6.029,0.0,-0.003,-0.014,102.0,102.0,102.0,13.3,1505.2,334.7,-0.8,1.8,2471.348,13.29,0.003,180.0
2023-07-31T00:28:03,42.805,6.029,-0.005,0.016,-0.048,102.0,103.0,102.0,13.3,1505.2,347.6,-0.7,1.9,2471.372,13.29,0.016,342.6
2023-07-31T00:31:03,42.805,6.029,-0.005,0.001,-0.026,102.0,100.0,102.0,13.4,1505.2,332.1,-0.8,1.8,2471.361,13.29,0.005,281.3
2023-07-31T00:34:03,42.805,6.029,-0.006,0.001,-0.037,101.0,102.0,102.0,13.4,1505.2,342.8,-0.8,1.8,2471.348,13.29,0.006,279.5
2023-07-31T00:37:03,42.805,6.029,-0.029,0.003,-0.012,104.0,102.0,101.0,13.4,1505.2,326.3,-0.8,1.8,2471.316,13.29,0.029,275.9
2023-07-31T00:40:03,42.805,6.029,-0.01,-0.004,-0.018,102.0,103.0,102.0,13.4,1505.2,344.6,-0.8,1.8,2471.358,13.29,0.01,248.2
2023-07-31T00:43:03,42.805,6.029,-0.013,-0.004,-0.009,104.0,102.0,102.0,13.4,1505.2,332.0,-0.7,1.8,2471.356,13.29,0.013,252.9
2023-07-31T00:46:03,42.805,6.029,-0.024,0.006,-0.054,102.0,102.0,102.0,13.4,1505.2,351.5,-0.7,1.8,2471.336,13.29,0.024,284.0
2023-07-31T00:49:03,42.805,6.029,-0.023,-0.004,-0.031,102.0,103.0,101.0,13.3,1505.2,344.5,-0.8,1.9,2471.36,13.29,0.023,260.1
2023-07-31T00:52:03,42.805,6.029,-0.026,-0.002,-0.043,103.0,101.0,102.0,13.4,1505.2,334.7,-0.8,1.8,2471.314,13.29,0.026,265.6
2023-07-31T00:55:03,42.805,6.029,-0.018,0.003,-0.035,102.0,102.0,101.0,13.3,1505.2,344.5,-0.8,1.8,2471.38,13.29,0.018,279.5
2023-07-31T00:58:03,42.805,6.029,0.0,0.0,-0.018,103.0,101.0,102.0,13.4,1505.2,339.1,-0.8,1.8,2471.351,13.29,0.0,0.0
2023-07-31T01:04:03,42.805,6.029,-0.013,-0.005,-0.042,103.0,104.0,103.0,13.4,1505.2,348.2,-0.8,1.8,2471.379,13.29,0.013,249.0
2023-07-31T01:07:03,42.805,6.029,-0.018,0.017,-0.037,102.0,101.0,102.0,13.4,1505.2,348.9,-0.8,1.8,2471.356,13.29,0.024,313.4
2023-07-31T01:10:03,42.805,6.029,-0.018,-0.013,-0.005,103.0,103.0,102.0,13.4,1505.2,353.5,-0.7,1.8,2471.407,13.29,0.022,234.2
2023-07-31T01:13:03,42.805,6.029,-0.023,0.0,-0.052,102.0,102.0,102.0,13.4,1505.2,340.4,-0.8,1.8,2471.367,13.29,0.023,270.0
2023-07-31T01:16:03,42.805,6.029,-0.013,0.003,-0.021,102.0,103.0,101.0,13.3,1505.2,341.1,-0.7,1.8,2471.36,13.29,0.013,283.0
2023-07-31T01:19:03,42.805,6.029,-0.003,0.004,-0.032,103.0,102.0,101.0,13.4,1505.2,341.5,-0.8,1.8,2471.333,13.29,0.005,323.1
2023-07-31T01:22:03,42.805,6.029,-0.021,0.015,-0.038,106.0,103.0,101.0,13.4,1505.2,340.4,-0.7,1.8,2471.335,13.29,0.025,305.5
2023-07-31T01:25:03,42.805,6.029,-0.008,-0.01,-0.047,103.0,102.0,102.0,13.4,1505.2,334.8,-0.8,1.8,2471.363,13.29,0.012,218.7
2023-07-31T01:28:03,42.805,6.029,-0.02,-0.001,-0.076,103.0,103.0,101.0,13.3,1505.2,331.1,-0.8,1.8,2471.342,13.29,0.02,267.1
2023-07-31T01:31:03,42.805,6.029,-0.018,0.014,-0.017,104.0,102.0,101.0,13.4,1505.2,350.1,-0.7,1.8,2471.35,13.29,0.022,307.9
2023-07-31T01:34:03,42.805,6.029,-0.002,-0.002,-0.027,103.0,104.0,100.0,13.4,1505.2,326.6,-0.8,1.8,2471.337,13.29,0.002,225.0
2023-07-31T01:37:03,42.805,6.029,0.008,-0.009,-0.034,102.0,103.0,101.0,13.4,1505.2,329.7,-0.7,1.8,2471.384,13.29,0.012,138.4
2023-07-31T01:40:03,42.805,6.029,-0.008,-0.004,-0.069,102.0,104.0,102.0,13.4,1505.2,351.7,-0.7,1.8,2471.374,13.29,0.008,243.4
2023-07-31T01:43:03,42.805,6.029,-0.024,0.005,-0.037,104.0,102.0,101.0,13.4,1505.2,343.3,-0.7,1.8,2471.325,13.29,0.024,281.8
2023-07-31T01:46:03,42.805,6.029,-0.029,-0.009,-0.052,102.0,102.0,102.0,13.4,1505.2,326.5,-0.8,1.8,2471.368,13.29,0.03,252.8
2023-07-31T01:49:03,42.805,6.029,-0.019,-0.001,-0.018,103.0,102.0,102.0,13.3,1505.2,330.7,-0.8,1.8,2471.348,13.29,0.019,267.0
2023-07-31T01:52:03,42.805,6.029,-0.024,0.013,-0.011,104.0,103.0,100.0,13.3,1505.2,338.8,-0.8,1.8,2471.353,13.29,0.027,298.4
2023-07-31T01:55:03,42.805,6.029,0.0,0.005,-0.02,103.0,102.0,102.0,13.3,1505.2,342.1,-0.8,1.8,2471.317,13.29,0.005,0.0
2023-07-31T01:58:03,42.805,6.029,-0.025,0.002,-0.026,101.0,103.0,102.0,13.4,1505.2,328.4,-0.8,1.8,2471.303,13.29,0.025,274.6
2023-07-31T02:04:03,42.805,6.029,-0.021,0.0,-0.028,103.0,103.0,101.0,13.4,1505.2,329.5,-0.8,1.8,2471.416,13.29,0.021,270.0
2023-07-31T02:07:03,42.805,6.029,-0.02,-0.006,-0.011,101.0,105.0,101.0,13.4,1505.2,329.2,-0.7,1.8,2471.454,13.29,0.02,253.3
2023-07-31T02:10:03,42.805,6.029,-0.014,0.0,-0.027,103.0,102.0,100.0,13.4,1505.2,330.1,-0.7,1.8,2471.348,13.29,0.014,270.0
2023-07-31T02:13:03,42.805,6.029,-0.003,0.003,-0.046,102.0,103.0,101.0,13.3,1505.2,353.0,-0.8,1.8,2471.392,13.29,0.004,315.0
2023-07-31T02:16:03,42.805,6.029,-0.03,0.005,-0.035,102.0,103.0,102.0,13.3,1505.2,324.9,-0.8,1.8,2471.388,13.29,0.03,279.5
2023-07-31T02:19:03,42.805,6.029,-0.023,0.025,-0.035,103.0,102.0,101.0,13.4,1505.2,355.6,-0.7,1.8,2471.38,13.29,0.033,317.4
2023-07-31T02:22:03,42.805,6.029,-0.018,0.012,-0.025,101.0,103.0,102.0,13.4,1505.2,333.8,-0.7,1.8,2471.401,13.29,0.021,303.7
2023-07-31T02:25:03,42.805,6.029,-0.004,0.007,-0.034,104.0,103.0,101.0,13.4,1505.2,351.5,-0.8,1.8,2471.368,13.29,0.008,330.3
2023-07-31T02:28:03,42.805,6.029,-0.01,0.009,-0.041,104.0,101.0,102.0,13.3,1505.2,341.9,-0.7,1.8,2471.358,13.29,0.013,312.0
2023-07-31T02:31:03,42.805,6.029,-0.026,0.029,-0.039,104.0,102.0,100.0,13.4,1505.2,343.4,-0.7,1.9,2471.359,13.29,0.038,318.1
2023-07-31T02:34:03,42.805,6.029,-0.026,0.003,-0.015,104.0,102.0,101.0,13.4,1505.2,341.2,-0.7,1.8,2471.365,13.29,0.026,276.6
2023-07-31T02:37:03,42.805,6.029,-0.015,0.005,-0.026,102.0,102.0,101.0,13.3,1505.2,332.9,-0.8,1.8,2471.382,13.29,0.015,288.4
2023-07-31T02:40:03,42.805,6.029,0.0,-0.007,-0.047,104.0,101.0,101.0,13.4,1505.2,342.7,-0.8,1.8,2471.357,13.29,0.007,180.0
2023-07-31T02:43:03,42.805,6.029,-0.034,-0.003,-0.036,102.0,102.0,100.0,13.4,1505.2,327.1,-0.8,1.8,2471.352,13.29,0.034,265.0
2023-07-31T02:46:03,42.805,6.029,-0.023,0.009,-0.023,103.0,103.0,100.0,13.4,1505.2,340.7,-0.8,1.8,2471.401,13.29,0.024,291.4
2023-07-31T02:49:03,42.805,6.029,0.001,-0.006,-0.028,103.0,104.0,100.0,13.3,1505.2,332.9,-0.8,1.8,2471.394,13.29,0.006,170.5
2023-07-31T02:52:03,42.805,6.029,-0.012,0.016,-0.042,104.0,101.0,102.0,13.4,1505.2,346.2,-0.7,1.8,2471.365,13.29,0.02,323.1
2023-07-31T02:55:03,42.805,6.029,-0.015,0.021,-0.031,102.0,103.0,101.0,13.4,1505.2,345.4,-0.8,1.8,2471.371,13.29,0.025,324.5
2023-07-31T02:58:03,42.805,6.029,0.015,-0.014,-0.033,102.0,102.0,102.0,13.3,1505.2,323.3,-0.8,1.8,2471.372,13.29,0.02,133.0
2023-07-31T03:04:03,42.805,6.029,-0.018,-0.01,-0.029,103.0,102.0,101.0,13.4,1505.2,343.4,-0.7,1.8,2471.443,13.29,0.02,240.9
2023-07-31T03:07:03,42.805,6.029,-0.019,0.013,-0.043,102.0,104.0,101.0,13.4,1505.2,352.8,-0.7,1.8,2471.468,13.29,0.023,304.4
2023-07-31T03:10:03,42.805,6.029,-0.011,-0.002,-0.038,103.0,103.0,100.0,13.4,1505.2,347.9,-0.8,1.8,2471.446,13.29,0.011,259.7
2023-07-31T03:13:03,42.805,6.029,-0.013,0.005,-0.01,103.0,102.0,100.0,13.4,1505.2,346.9,-0.8,1.8,2471.436,13.29,0.013,291.0
2023-07-31T03:16:03,42.805,6.029,-0.001,0.01,-0.028,102.0,102.0,101.0,13.4,1505.2,350.5,-0.8,1.7,2471.428,13.29,0.01,354.3
2023-07-31T03:19:03,42.805,6.029,-0.036,0.003,-0.042,102.0,102.0,101.0,13.4,1505.2,337.7,-0.8,1.8,2471.392,13.29,0.036,274.8
2023-07-31T03:22:03,42.805,6.029,0.0,0.004,-0.003,101.0,103.0,102.0,13.4,1505.2,329.3,-0.8,1.8,2471.424,13.29,0.004,0.0
2023-07-31T03:25:03,42.805,6.029,-0.01,0.021,-0.004,102.0,103.0,101.0,13.3,1505.2,339.5,-0.8,1.8,2471.403,13.29,0.023,334.5
2023-07-31T03:28:03,42.805,6.029,-0.011,0.023,0.01,103.0,102.0,100.0,13.3,1505.2,331.8,-0.8,1.8,2471.437,13.29,0.025,334.4
2023-07-31T03:31:03,42.805,6.029,-0.023,-0.012,-0.042,102.0,102.0,102.0,13.3,1505.2,333.9,-0.8,1.8,2471.428,13.29,0.025,242.4
2023-07-31T03:34:03,42.805,6.029,-0.02,-0.003,-0.047,104.0,103.0,100.0,13.3,1505.2,324.8,-0.7,1.8,2471.375,13.29,0.02,261.5
2023-07-31T03:37:03,42.805,6.029,-0.021,0.005,-0.028,102.0,102.0,101.0,13.3,1505.2,339.1,-0.7,1.8,2471.393,13.29,0.021,283.4
2023-07-31T03:40:03,42.805,6.029,-0.013,0.024,-0.021,102.0,102.0,101.0,13.4,1505.2,353.0,-0.8,1.8,2471.445,13.29,0.027,331.6
2023-07-31T03:43:03,42.805,6.029,-0.023,-0.021,-0.042,103.0,102.0,101.0,13.4,1505.2,321.9,-0.8,1.8,2471.406,13.29,0.031,227.6
2023-07-31T03:46:03,42.805,6.029,0.0,-0.003,-0.04,102.0,102.0,101.0,13.4,1505.2,327.1,-0.8,1.8,2471.372,13.29,0.003,180.0
2023-07-31T03:49:03,42.805,6.029,-0.043,0.034,-0.01,102.0,101.0,101.0,13.4,1505.2,331.9,-0.8,1.8,2471.403,13.29,0.054,308.3
2023-07-31T03:52:03,42.805,6.029,-0.017,0.0,-0.048,101.0,102.0,101.0,13.4,1505.2,347.0,-0.8,1.8,2471.425,13.29,0.017,270.0
2023-07-31T03:55:03,42.805,6.029,-0.011,0.007,0.007,101.0,102.0,100.0,13.4,1505.2,338.8,-0.7,1.8,2471.39,13.29,0.013,302.5
2023-07-31T03:58:03,42.805,6.029,-0.021,0.017,-0.041,102.0,102.0,100.0,13.4,1505.2,337.7,-0.8,1.8,2471.443,13.29,0.027,309.0
2023-07-31T04:04:03,42.805,6.029,-0.028,0.013,-0.002,102.0,102.0,101.0,13.4,1505.2,327.9,-0.8,1.8,2471.472,13.29,0.03,294.9
2023-07-31T04:07:03,42.805,6.029,-0.01,0.014,-0.013,102.0,102.0,100.0,13.4,1505.2,324.5,-0.8,1.9,2471.461,13.29,0.017,324.5
2023-07-31T04:10:03,42.805,6.029,-0.017,0.009,-0.013,102.0,102.0,101.0,13.4,1505.2,333.4,-0.8,1.8,2471.472,13.29,0.019,297.9
2023-07-31T04:13:03,42.805,6.029,0.016,0.019,-0.038,100.0,102.0,102.0,13.3,1505.2,331.2,-0.8,1.8,2471.459,13.29,0.024,40.1
2023-07-31T04:16:03,42.805,6.029,-0.008,-0.001,-0.024,101.0,101.0,100.0,13.4,1505.2,334.9,-0.8,1.8,2471.448,13.29,0.008,262.9
2023-07-31T04:19:03,42.805,6.029,-0.018,0.014,-0.015,103.0,102.0,100.0,13.3,1505.2,344.9,-0.7,1.8,2471.394,13.29,0.022,307.9
2023-07-31T04:22:03,42.805,6.029,-0.027,0.042,-0.015,103.0,100.0,101.0,13.4,1505.2,352.1,-0.8,1.8,2471.423,13.29,0.049,327.3
2023-07-31T04:25:03,42.805,6.029,-0.02,-0.01,-0.027,103.0,102.0,100.0,13.4,1505.2,330.5,-0.8,1.8,2471.43,13.29,0.022,243.4
2023-07-31T04:28:03,42.805,6.029,-0.028,0.017,-0.041,101.0,101.0,102.0,13.3,1505.2,333.0,-0.8,1.8,2471.397,13.29,0.032,301.3
2023-07-31T04:31:03,42.805,6.029,-0.024,-0.001,-0.064,102.0,101.0,101.0,13.3,1505.2,332.9,-0.7,1.8,2471.471,13.29,0.024,267.6
2023-07-31T04:34:03,42.805,6.029,-0.033,0.027,-0.022,102.0,101.0,101.0,13.4,1505.2,333.4,-0.8,1.9,2471.401,13.29,0.042,309.3
2023-07-31T04:37:03,42.805,6.029,0.004,0.0,-0.025,102.0,102.0,100.0,13.4,1505.2,333.8,-0.8,1.8,2471.419,13.29,0.004,90.0
2023-07-31T04:40:03,42.805,6.029,-0.005,0.004,-0.039,102.0,103.0,102.0,13.4,1505.2,324.5,-0.8,1.8,2471.431,13.29,0.006,308.7
2023-07-31T04:43:03,42.805,6.029,-0.009,0.012,-0.007,102.0,100.0,101.0,13.4,1505.2,352.7,-0.7,1.8,2471.419,13.29,0.015,323.1
2023-07-31T04:46:03,42.805,6.029,-0.044,0.011,-0.029,103.0,101.0,101.0,13.4,1505.2,330.0,-0.7,1.8,2471.483,13.29,0.045,284.0
2023-07-31T04:49:03,42.805,6.029,-0.022,0.005,-0.034,103.0,102.0,101.0,13.4,1505.2,333.0,-0.8,1.8,2471.407,13.29,0.022,282.8
2023-07-31T04:52:03,42.805,6.029,-0.009,0.002,-0.008,103.0,101.0,102.0,13.3,1505.2,352.7,-0.7,1.8,2471.423,13.29,0.009,282.5
2023-07-31T04:55:03,42.805,6.029,-0.03,0.006,-0.048,103.0,102.0,100.0,13.4,1505.2,326.0,-0.7,1.8,2471.449,13.29,0.03,281.3
2023-07-31T04:58:03,42.805,6.029,-0.034,0.021,-0.055,101.0,102.0,102.0,13.4,1505.2,333.8,-0.7,1.8,2471.457,13.29,0.039,301.7
2023-07-31T05:04:03,42.805,6.029,-0.007,0.019,-0.044,103.0,101.0,101.0,13.3,1505.2,336.9,-0.8,1.8,2471.499,13.29,0.02,339.8
2023-07-31T05:07:03,42.805,6.029,0.0,0.018,-0.007,103.0,102.0,101.0,13.4,1505.2,341.5,-0.8,1.8,2471.502,13.29,0.018,0.0
2023-07-31T05:10:03,42.805,6.029,-0.017,0.003,-0.03,102.0,102.0,101.0,13.4,1505.2,345.2,-0.8,1.8,2471.46,13.29,0.017,280.0
2023-07-31T05:13:03,42.805,6.029,-0.008,0.017,-0.003,103.0,101.0,101.0,13.4,1505.2,351.5,-0.7,1.8,2471.456,13.29,0.018,334.8
2023-07-31T05:16:03,42.805,6.029,-0.004,0.0,-0.017,102.0,101.0,102.0,13.4,1505.2,322.3,-0.7,1.8,2471.462,13.29,0.004,270.0
2023-07-31T05:19:03,42.805,6.029,-0.014,0.0,-0.028,102.0,102.0,101.0,13.4,1505.2,341.1,-0.8,1.8,2471.428,13.29,0.014,270.0
2023-07-31T05:22:03,42.805,6.029,-0.011,-0.014,-0.052,102.0,102.0,101.0,13.4,1505.2,331.3,-0.7,1.8,2471.453,13.29,0.017,218.2
2023-07-31T05:25:03,42.805,6.029,0.0,-0.009,-0.034,101.0,102.0,101.0,13.3,1505.2,325.4,-0.7,1.8,2471.435,13.29,0.009,180.0
2023-07-31T05:28:03,42.805,6.029,-0.011,0.006,-0.041,102.0,101.0,101.0,13.3,1505.2,334.5,-0.8,1.8,2471.44,13.29,0.012,298.6
2023-07-31T05:31:03,42.805,6.029,-0.019,0.013,0.024,102.0,102.0,101.0,13.4,1505.2,337.1,-0.8,1.8,2471.454,13.29,0.023,304.4
2023-07-31T05:34:03,42.805,6.029,-0.004,0.013,-0.024,103.0,101.0,101.0,13.3,1505.2,352.8,-0.8,1.8,2471.448,13.29,0.013,342.9
2023-07-31T05:37:03,42.805,6.029,0.009,-0.014,-0.032,102.0,101.0,102.0,13.3,1505.2,332.5,-0.7,1.9,2471.401,13.29,0.016,147.3
2023-07-31T05:40:03,42.805,6.029,-0.015,0.005,-0.026,101.0,102.0,101.0,13.3,1505.2,325.4,-0.7,1.8,2471.419,13.29,0.015,288.4
2023-07-31T05:43:03,42.805,6.029,0.003,0.005,-0.026,101.0,101.0,101.0,13.3,1505.2,343.9,-0.8,1.8,2471.434,13.29,0.005,31.0
2023-07-31T05:46:03,42.805,6.029,0.013,-0.001,0.001,101.0,101.0,100.0,13.3,1505.2,341.1,-0.8,1.8,2471.437,13.29,0.013,94.4
2023-07-31T05:49:03,42.805,6.029,0.019,0.007,-0.008,101.0,102.0,100.0,13.3,1505.2,344.0,-0.8,1.8,2471.463,13.29,0.02,69.8
2023-07-31T05:52:03,42.805,6.029,0.004,0.016,-0.036,102.0,101.0,101.0,13.3,1505.2,345.0,-0.7,1.8,2471.423,13.29,0.016,14.0
2023-07-31T05:55:03,42.805,6.029,0.0,0.046,0.013,101.0,101.0,100.0,13.4,1505.2,351.3,-0.8,1.8,2471.448,13.29,0.046,0.0
2023-07-31T05:58:03,42.805,6.029,-0.005,0.004,-0.028,103.0,101.0,100.0,13.4,1505.2,335.0,-0.7,1.8,2471.434,13.29,0.006,308.7
2023-07-31T06:04:03,42.805,6.029,-0.012,0.004,-0.051,100.0,102.0,101.0,13.3,1505.2,345.2,-0.8,1.8,2471.515,13.29,0.012,288.4
2023-07-31T06:07:03,42.805,6.029,-0.013,0.006,-0.025,101.0,101.0,101.0,13.4,1505.2,340.0,-0.8,1.8,2471.499,13.29,0.014,294.8
2023-07-31T06:10:03,42.805,6.029,-0.026,0.024,-0.043,102.0,100.0,101.0,13.4,1505.2,333.9,-0.8,1.9,2471.478,13.29,0.035,312.7
2023-07-31T06:13:03,42.805,6.029,-0.004,-0.003,-0.033,103.0,102.0,101.0,13.4,1505.2,350.5,-0.8,1.8,2471.5,13.29,0.005,233.1
2023-07-31T06:16:03,42.805,6.029,-0.016,0.012,-0.008,101.0,102.0,101.0,13.4,1505.2,322.9,-0.8,1.8,2471.421,13.29,0.02,306.9
2023-07-31T06:19:03,42.805,6.029,-0.018,0.012,-0.026,102.0,100.0,101.0,13.3,1505.2,322.5,-0.8,1.8,2471.429,13.29,0.021,303.7
2023-07-31T06:22:03,42.805,6.029,0.006,0.005,-0.052,102.0,102.0,101.0,13.4,1505.2,352.4,-0.8,1.9,2471.469,13.29,0.007,50.2
2023-07-31T06:25:03,42.805,6.029,0.004,0.025,-0.028,101.0,101.0,101.0,13.4,1505.2,342.8,-0.8,1.8,2471.456,13.29,0.025,9.1
2023-07-31T06:28:03,42.805,6.029,-0.002,0.006,0.001,102.0,101.0,101.0,13.4,1505.2,353.6,-0.7,1.8,2471.428,13.29,0.006,341.6
2023-07-31T06:31:03,42.805,6.029,-0.024,0.034,0.006,102.0,101.0,101.0,13.4,1505.2,331.8,-0.8,1.8,2471.41,13.29,0.041,324.8
2023-07-31T06:34:03,42.805,6.029,-0.041,0.007,-0.021,102.0,103.0,101.0,13.4,1505.2,322.5,-0.8,1.8,2471.44,13.29,0.041,279.7
2023-07-31T06:37:03,42.805,6.029,-0.005,0.006,-0.02,100.0,102.0,101.0,13.4,1505.2,339.8,-0.7,1.8,2471.403,13.29,0.007,320.2
2023-07-31T06:40:03,42.805,6.029,-0.006,0.025,-0.011,102.0,103.0,100.0,13.4,1505.2,342.8,-0.8,1.8,2471.457,13.29,0.025,346.5
2023-07-31T06:43:03,42.805,6.029,0.002,0.0,-0.019,101.0,101.0,101.0,13.4,1505.2,349.1,-0.7,1.8,2471.424,13.29,0.002,90.0
2023-07-31T06:46:03,42.805,6.029,-0.022,0.018,-0.027,102.0,101.0,100.0,13.3,1505.2,337.1,-0.8,1.8,2471.448,13.29,0.028,309.3
2023-07-31T06:49:03,42.805,6.029,0.032,-0.007,-0.015,102.0,102.0,101.0,13.3,1505.2,354.2,-0.8,1.8,2471.455,13.29,0.032,102.3
2023-07-31T06:52:03,42.805,6.029,0.001,0.005,-0.06,102.0,101.0,101.0,13.4,1505.2,330.1,-0.7,1.8,2471.422,13.29,0.005,11.3
2023-07-31T06:55:03,42.805,6.029,-0.009,-0.011,-0.055,102.0,101.0,102.0,13.3,1505.2,329.1,-0.8,1.9,2471.437,13.29,0.014,219.3
2023-07-31T06:58:03,42.805,6.029,-0.004,-0.013,-0.039,101.0,102.0,101.0,13.4,1505.2,349.1,-0.8,1.8,2471.423,13.29,0.013,197.1
2023-07-31T07:04:03,42.805,6.029,0.007,0.015,-0.016,103.0,102.0,100.0,13.3,1505.2,329.7,-0.8,1.8,2471.484,13.29,0.016,25.0
2023-07-31T07:07:03,42.805,6.029,0.0,-0.018,-0.039,101.0,101.0,103.0,13.4,1505.2,351.4,-0.7,1.8,2471.483,13.29,0.018,180.0
2023-07-31T07:10:03,42.805,6.029,-0.026,0.009,-0.048,103.0,102.0,101.0,13.3,1505.2,328.8,-0.8,1.8,2471.463,13.29,0.027,289.1
2023-07-31T07:13:03,42.805,6.029,0.026,-0.023,-0.037,101.0,102.0,101.0,13.4,1505.2,331.6,-0.7,1.8,2471.447,13.29,0.034,131.5
2023-07-31T07:16:03,42.805,6.029,-0.008,0.03,-0.01,103.0,101.0,100.0,13.4,1505.2,351.8,-0.7,1.8,2471.458,13.29,0.031,345.1
2023-07-31T07:19:03,42.805,6.029,-0.012,0.002,-0.024,100.0,101.0,101.0,13.4,1505.2,340.0,-0.8,1.8,2471.437,13.29,0.012,279.5
2023-07-31T07:22:03,42.805,6.029,0.008,0.013,-0.007,102.0,101.0,100.0,13.3,1505.2,354.2,-0.8,1.8,2471.446,13.29,0.015,31.6
2023-07-31T07:25:03,42.805,6.029,0.012,0.005,-0.002,102.0,105.0,100.0,13.4,1505.2,333.8,-0.7,1.8,2471.436,13.29,0.013,67.4
2023-07-31T07:28:03,42.805,6.029,0.027,-0.007,-0.029,102.0,101.0,100.0,13.4,1505.2,332.9,-0.8,1.8,2471.445,13.29,0.027,104.5
2023-07-31T07:31:03,42.805,6.029,0.0,0.008,-0.018,102.0,100.0,101.0,13.4,1505.2,340.7,-0.8,1.8,2471.416,13.29,0.008,0.0
2023-07-31T07:34:03,42.805,6.029,0.009,-0.003,-0.061,102.0,100.0,100.0,13.3,1505.2,324.9,-0.7,1.8,2471.408,13.29,0.009,108.4
2023-07-31T07:37:03,42.805,6.029,-0.022,0.02,-0.011,102.0,101.0,101.0,13.4,1505.2,323.3,-0.8,1.8,2471.409,13.29,0.029,312.3
2023-07-31T07:40:03,42.805,6.029,0.008,0.013,-0.033,101.0,102.0,100.0,13.4,1505.2,344.3,-0.7,1.8,2471.432,13.29,0.015,31.6
2023-07-31T07:43:03,42.805,6.029,0.005,0.006,-0.003,101.0,102.0,101.0,13.4,1505.2,342.8,-0.7,1.8,2471.445,13.29,0.007,39.8
2023-07-31T07:46:03,42.805,6.029,0.024,-0.012,-0.01,102.0,101.0,101.0,13.4,1505.2,338.5,-0.7,1.8,2471.41,13.29,0.026,116.6
2023-07-31T07:49:03,42.805,6.029,0.008,0.0,-0.049,101.0,102.0,101.0,13.3,1505.2,337.7,-0.8,1.8,2471.455,13.29,0.008,90.0
2023-07-31T07:52:03,42.805,6.029,0.0,-0.006,-0.034,101.0,102.0,100.0,13.4,1505.2,331.5,-0.8,1.8,2471.424,13.29,0.006,180.0
2023-07-31T07:55:03,42.805,6.029,-0.005,-0.017,-0.051,102.0,101.0,100.0,13.3,1505.2,343.1,-0.8,1.8,2471.362,13.29,0.017,196.4
2023-07-31T07:58:03,42.805,6.029,0.0,-0.005,-0.025,101.0,101.0,101.0,13.4,1505.2,328.3,-0.7,1.8,2471.38,13.29,0.005,180.0
2023-07-31T08:04:03,42.805,6.029,-0.011,0.003,-0.025,102.0,101.0,101.0,13.4,1505.2,351.7,-0.7,1.9,2471.422,13.29,0.011,285.3
2023-07-31T08:07:03,42.805,6.029,-0.009,-0.021,-0.028,101.0,100.0,102.0,13.4,1505.2,349.1,-0.7,1.9,2471.389,13.29,0.022,203.2
2023-07-31T08:10:03,42.805,6.029,0.005,0.007,0.0,101.0,102.0,101.0,13.4,1505.2,353.7,-0.8,1.8,2471.441,13.29,0.008,35.5
2023-07-31T08:13:03,42.805,6.029,-0.009,0.017,-0.006,102.0,102.0,100.0,13.4,1505.2,327.7,-0.8,1.8,2471.418,13.29,0.019,332.1
2023-07-31T08:16:03,42.805,6.029,-0.001,-0.013,-0.064,102.0,102.0,101.0,13.3,1505.2,341.1,-0.8,1.8,2471.408,13.29,0.013,184.4
2023-07-31T08:19:03,42.805,6.029,-0.014,0.006,-0.074,102.0,102.0,100.0,13.3,1505.2,339.3,-0.8,1.8,2471.422,13.29,0.015,293.2
2023-07-31T08:22:03,42.805,6.029,0.013,-0.002,-0.021,102.0,101.0,101.0,13.4,1505.2,330.2,-0.8,1.8,2471.42,13.29,0.013,98.7
2023-07-31T08:25:03,42.805,6.029,0.007,-0.022,-0.03,101.0,102.0,100.0,13.4,1505.2,323.5,-0.8,1.8,2471.418,13.29,0.023,162.4
2023-07-31T08:28:03,42.805,6.029,0.023,0.011,-0.013,101.0,102.0,102.0,13.4,1505.2,342.3,-0.8,1.8,2471.369,13.29,0.025,64.4
2023-07-31T08:31:03,42.805,6.029,-0.003,-0.001,-0.025,102.0,102.0,100.0,13.4,1505.2,344.5,-0.8,1.8,2471.413,13.29,0.003,251.6
2023-07-31T08:34:03,42.805,6.029,0.011,-0.013,-0.059,100.0,102.0,102.0,13.4,1505.2,337.5,-0.7,1.8,2471.391,13.29,0.017,139.8
2023-07-31T08:37:03,42.805,6.029,0.027,-0.019,-0.037,101.0,102.0,100.0,13.4,1505.2,323.8,-0.7,1.8,2471.378,13.29,0.033,125.1
2023-07-31T08:40:03,42.805,6.029,-0.008,0.012,-0.054,102.0,102.0,101.0,13.4,1505.2,349.6,-0.8,1.8,2471.373,13.29,0.014,326.3
2023-07-31T08:43:03,42.805,6.029,-0.002,0.003,-0.053,102.0,102.0,101.0,13.4,1505.2,349.9,-0.8,1.8,2471.367,13.29,0.003,326.3
2023-07-31T08:46:03,42.805,6.029,-0.002,-0.001,-0.032,102.0,101.0,100.0,13.4,1505.2,329.7,-0.8,1.8,2471.391,13.29,0.002,243.4
2023-07-31T08:49:03,42.805,6.029,-0.005,0.0,-0.019,102.0,101.0,101.0,13.4,1505.2,344.2,-0.8,1.8,2471.346,13.29,0.005,270.0
2023-07-31T08:52:03,42.805,6.029,-0.021,0.005,-0.035,102.0,101.0,100.0,13.4,1505.2,343.2,-0.8,1.8,2471.37,13.29,0.021,283.4
2023-07-31T08:55:03,42.805,6.029,0.003,-0.006,-0.052,102.0,101.0,100.0,13.4,1505.2,351.5,-0.8,1.8,2471.343,13.29,0.006,153.4
2023-07-31T08:58:03,42.805,6.029,0.014,-0.022,-0.053,102.0,101.0,100.0,13.3,1505.2,353.0,-0.8,1.8,2471.353,13.29,0.026,147.5
2023-07-31T09:01:03,42.805,6.029,0.001,-0.007,-0.051,102.0,101.0,102.0,13.4,1505.2,354.1,-0.8,1.8,2471.368,13.29,0.007,171.9
2023-07-31T09:04:03,42.805,6.029,-0.003,-0.017,-0.025,102.0,103.0,100.0,13.3,1505.2,326.0,-0.8,1.8,2471.33,13.29,0.017,190.0
2023-07-31T09:07:03,42.805,6.029,0.009,-0.01,-0.052,103.0,101.0,100.0,13.4,1505.2,333.4,-0.8,1.8,2471.32,13.29,0.013,138.0
2023-07-31T09:10:03,42.805,6.029,-0.003,0.008,-0.034,103.0,102.0,100.0,13.4,1505.2,344.4,-0.8,1.9,2471.375,13.29,0.008,339.4
2023-07-31T09:13:03,42.805,6.029,0.007,-0.006,-0.03,102.0,102.0,101.0,13.3,1505.2,336.5,-0.7,1.8,2471.346,13.29,0.009,130.6
2023-07-31T09:16:03,42.805,6.029,0.012,0.0,-0.025,103.0,100.0,101.0,13.4,1505.2,333.8,-0.7,1.8,2471.333,13.29,0.012,90.0
2023-07-31T09:19:03,42.805,6.029,0.01,-0.008,-0.035,100.0,101.0,102.0,13.3,1505.2,337.0,-0.7,1.8,2471.338,13.29,0.012,128.7
2023-07-31T09:22:03,42.805,6.029,0.007,-0.002,-0.014,104.0,100.0,100.0,13.4,1505.2,326.3,-0.8,1.8,2471.327,13.29,0.007,105.9
2023-07-31T09:25:03,42.805,6.029,0.001,-0.022,-0.076,102.0,100.0,101.0,13.4,1505.2,330.3,-0.8,1.8,2471.338,13.29,0.022,177.4
2023-07-31T09:28:03,42.805,6.029,0.02,-0.006,-0.002,102.0,102.0,101.0,13.4,1505.2,332.9,-0.8,1.8,2471.342,13.29,0.02,106.7
2023-07-31T09:31:03,42.805,6.029,0.015,0.004,-0.011,101.0,102.0,100.0,13.4,1505.2,329.9,-0.7,1.8,2471.363,13.29,0.015,75.1
2023-07-31T09:34:03,42.805,6.029,-0.004,0.0,-0.025,102.0,100.0,101.0,13.3,1505.2,333.8,-0.7,1.8,2471.324,13.29,0.004,270.0
2023-07-31T09:37:03,42.805,6.029,0.001,0.011,-0.028,102.0,101.0,101.0,13.4,1505.2,337.8,-0.7,1.8,2471.321,13.29,0.011,5.2
2023-07-31T09:40:03,42.805,6.029,-0.006,-0.029,-0.026,102.0,102.0,101.0,13.3,1505.2,342.3,-0.7,1.8,2471.327,13.29,0.029,191.7
2023-07-31T09:43:03,42.805,6.029,-0.005,-0.01,-0.04,102.0,102.0,101.0,13.4,1505.2,332.0,-0.8,1.8,2471.321,13.29,0.011,206.6
2023-07-31T09:46:03,42.805,6.029,-0.004,0.024,-0.018,102.0,102.0,100.0,13.3,1505.2,349.9,-0.7,1.8,2471.328,13.29,0.024,350.5
2023-07-31T09:49:03,42.805,6.029,-0.004,-0.012,-0.055,101.0,101.0,102.0,13.3,1505.2,324.5,-0.8,1.8,2471.316,13.29,0.012,198.4
2023-07-31T09:52:03,42.805,6.029,-0.003,0.022,0.0,103.0,101.0,100.0,13.3,1505.2,330.8,-0.8,1.8,2471.309,13.29,0.022,352.2